Location: Castillon
(43.0896°N, 0.2156°E)
Time: 10:32:16
(UTC+00:00)

Cosmos 1544 Rocket - Pass Details

Date: 21 October 2021
Orbit: 603 x 631 km, 82.5° (Epoch: 08 December)

Event Time Altitude Azimuth Distance (km) Brightness Sun altitude
Rises 05:34:09 0° 352° (N) 2,915 6.9 -9.1°
Reaches altitude 10° 05:36:24 10° 352° (N) 1,999 6.0 -8.7°
Maximum altitude 05:40:50 87° 79° (E) 624 3.6 -7.9°
Drops below altitude 10° 05:45:12 10° 172° (S) 1,965 6.4 -7.1°
Sets 05:47:24 0° 173° (S) 2,861 7.2 -6.7°
